STARLINK-1478, 45755

Orbit data source: Space-Track

STARLINK-1478, 45755 is a payload satellite owned by SpaceX/Seattle (US) in LEO that was launched on Sat, 13 Jun 2020 UTC via an FALCON 9 launch vehicle from the Air Force Eastern Test Range (AFETR). Payloads include a variety of satellites, spacecraft, and rockets equipped with specific instruments for various scientific and technological missions. These include communications satellites like Starlink; space stations such as the ISS; scientific satellites like the Hubble; Earth observation satellites from companies like Planet Labs, Umbra, and HawkEye 360; GPS; miniature CubeSats for education and research; and military/defense satellites.

Loading next visibility...
STARLINK-1478 details
Identifier
45755, 2020-038AB
Orbit
LEO
Last TLE update12 hours ago
Origin
Flag of USSpaceX/Seattle (US)
ManufacturerSpaceX/Seattle
MissionOperational Commercial Communications
Bus & MotorSTARLINK, Unknown motor
Mass260 kg wet, ~248 kg dry
Launch date (UTC)
2020-06-13 (5 years ago)
Launch vehicle
FALCON 9
Launch site
Air Force Eastern Test Range (AFETR)
Object type
Payload
Rocket body
Debris
Shape & HBRBox + 1 Pan, 8.86 m
Radar Cross Section13.562 m², Large (>1 m²)

Expand to show TLE details & history

TLE from 12 hours ago
0 STARLINK-1478
1 45755U 20038AB  24348.70540547  .00009569  00000-0  66040-3 0  9990
2 45755  53.0531  81.1641 0000864  63.3160 296.7917 15.06399561249611
Epoch: 2024-12-13T16:55Z
Definitive object data (Epoch: 2024-12-13T16:55:47.032Z)
Latitude-0.00006°
Longitude104.35054°
Altitude547.822 km
Speed7.589 km/s
True Right ascension05h 24m 39s
True Declination0° 00' 00"
Sunlit
Object was in full shadow at TLE epoch
Visualization TLE readout
Latitude52.38178°
Longitude178.27869°
Altitude552.976 km
Speed7.592 km/s
Apparent Right ascension12h 51m 13s
Apparent Declination10° 31' 51"
Sunlit
Object is in full shadow
Visualization observer readout
Local Sidereal Time02:59:03
Azimuth37.614° NE
Elevation-31.5°
Doppler factor1
Orbital elements
Apogee altitude548.082 km
Perigee altitude546.885 km
Semi-major axis6,925.621 km
Eccentricity0.0000864
Inclination53.0531°
RAAN81.1641°
Arg. of periapsis63.316°
True anomaly296.78286°
Mean anomaly296.7917°
Eccentric anomaly296.78728°
Mean motion3.76578 °/min
BSTAR0.0006604
Orbital period95.6 mins
Loading maneuver chart data...
Loading historical data...
Loading historical data...
Loading historical data...
Loading historical data...
Loading historical data...
Loading historical data...
Loading historical data...

STARLINK-1478 Visibility forecast

Observer location: undefined°, undefined

Span
Click to sort rows by Start time (UTC) header in descending order
Start Az.
Max El. time (UTC)
Max El. Az.
Max El.
End time (UTC)
End Az.
7 mins2024-12-14 09:01:09.950Z222.752° SW2024-12-14 09:05:09.950Z102.231° ESE43.634°2024-12-14 09:08:09.950Z54.15° ENE
4 mins2024-12-14 10:43:09.950Z302.396° NW2024-12-14 10:45:09.950Z344.45° N21.252°2024-12-14 10:47:09.950Z20.413° NNE
4 mins2024-12-14 14:05:09.950Z355.995° N2024-12-14 14:06:09.950Z14.846° NNE18.165°2024-12-14 14:09:09.950Z64.316° ENE
6 mins2024-12-14 15:44:09.950Z316.68° NNW2024-12-14 15:46:09.950Z356.331° N43.072°2024-12-14 15:50:09.950Z123.813° SE
|